{"data":{"norad_id":46077,"epoch":"2026-05-25T01:53:36.059712Z","epoch_age_seconds":64134,"freshness":"FRESH","line1":"1 46077U 20055BC  26145.07888958  .00046347  00000+0  12742-2 0  9998","line2":"2 46077  53.0236  76.2683 0002869  60.4784 299.6503 15.36766723321300","mean_motion":15.36766723,"eccentricity":0.0002869,"inclination_deg":53.0236,"raan_deg":76.2683,"arg_perigee_deg":60.4784,"mean_anomaly_deg":299.6503,"bstar":0.0012742,"rev_number":32130,"period_min":93.703226289863,"perigee_km":453.71724861565,"apogee_km":457.63849158811,"semimajor_km":6833.8148701019,"source":"CELESTRAK","updated_at":"2026-05-25T13:38:16.464739Z"}}